Cloud_Cover
100 100 100 62 100 29 66 21 25 6 11 90 97 100 100 100 100 100 92 100 100 100 100 100 100 100 89 5 1 4 0 0 0 4 5 5 3 3 0 5 5 6 8 0 8 100 68
100 100 100 100 100 100 100 100 98 100 92 18 100 100 100 100 100 100 100 100 99 100 100 86 100 58 15 4 1 4 5 5 2 5 5 5 44 9 1 0 3 84 5 2 60 100 73
100 100 100 100 100 100 100 78 100 73 16 46 10 97 66 100 100 100 100 100 100 100 12 100 18 4 7 14 3 1 5 14 5 61 5 58 6 3 20 4 5 100 100 5 93 100 98
96 100 100 100 100 100 100 100 100 100 46 6 5 44 98 100 100 100 100 100 100 100 68 8 15 4 0 0 0 1 5 9 75 100 8 95 55 99 55 21 26 100 68 84 68 86 100
100 100 98 100 100 100 100 100 100 100 99 100 85 48 97 88 100 100 100 91 100 100 100 81 8 0 0 0 0 0 5 8 100 100 100 88 72 83 69 45 18 92 100 100 100 58 100
100 100 30 70 100 100 100 100 100 100 100 100 97 96 76 18 60 100 100 72 98 34 42 5 0 0 0 0 0 0 0 6 97 100 100 100 81 51 98 56 65 100 100 100 50 85 100
13 100 54 100 100 100 100 100 100 100 100 100 100 88 66 41 96 92 100 100 100 4 5 5 2 0 0 0 0 0 3 87 100 100 100 100 100 13 93 100 100 100 100 100 100 100 100
49 67 98 99 98 100 100 100 100 100 100 100 100 100 98 98 99 8 37 47 67 93 58 4 0 0 0 0 0 1 9 43 97 100 100 100 42 93 100 100 100 100 100 100 100 100 100
66 100 100 100 97 100 100 100 87 90 100 100 100 100 100 88 25 12 22 8 30 78 7 2 0 0 0 0 8 34 100 100 100 100 100 100 36 100 100 100 100 100 100 100 100 100 100
17 15 100 84 100 100 70 100 100 100 100 94 96 100 100 100 80 66 88 42 37 98 39 0 2 2 0 0 61 22 51 61 100 100 100 99 95 100 100 100 100 100 100 100 100 100 100
97 100 100 100 100 89 100 100 100 100 100 100 100 100 98 98 100 92 100 30 57 98 4 0 0 5 4 6 3 64 91 100 100 100 100 100 100 100 100 100 100 100 100 100 100 100 100
100 100 97 95 77 100 100 100 100 98 100 100 100 98 63 30 38 77 100 15 45 94 3 0 0 0 88 28 9 90 100 100 100 100 100 100 100 100 100 100 100 100 100 100 100 100 100
91 80 84 47 54 42 100 100 100 100 100 100 100 100 100 100 94 75 86 96 42 4 0 0 0 3 82 100 7 35 100 100 100 100 100 100 100 100 100 100 100 100 100 100 100 100 100
39 87 100 100 78 100 87 100 100 100 100 100 100 100 100 65 72 56 93 78 18 5 0 0 0 0 98 77 100 100 100 100 100 100 100 100 100 100 100 100 100 100 100 100 100 100 100
99 91 61 57 43 74 100 95 100 100 100 100 100 100 100 100 100 89 60 76 4 5 0 0 0 0 99 100 100 100 100 100 100 100 100 100 100 100 100 100 100 100 100 100 100 100 100
73 88 97 97 5 100 33 51 100 100 100 100 100 100 100 100 100 99 65 15 5 0 7 1 0 2 90 100 100 100 100 100 100 100 100 100 99 100 100 100 99 100 100 100 100 100 100
99 47 28 36 16 97 100 94 59 100 100 100 100 100 100 100 100 100 77 63 5 4 5 2 3 5 5 100 100 100 100 100 100 100 100 100 100 100 100 96 100 100 100 100 100 100 100
100 98 83 99 94 13 91 68 98 67 100 100 100 100 100 100 98 100 100 100 96 29 5 5 5 5 5 100 98 100 100 100 100 100 100 100 100 100 100 100 100 100 100 100 100 100 100
100 100 100 100 88 59 95 100 45 87 100 100 100 100 100 99 94 83 72 91 100 77 7 5 5 19 79 58 100 100 100 100 100 100 100 100 100 100 100 100 100 100 100 100 100 100 100
100 100 100 100 44 8 15 87 44 32 100 95 85 96 100 100 95 69 95 100 100 52 51 75 100 87 97 100 100 100 100 100 100 100 100 100 100 100 100 100 100 100 100 100 100 100 100
88 86 34 55 84 88 23 5 4 7 96 97 98 51 99 91 86 77 94 68 100 100 95 97 100 100 100 100 100 100 100 100 100 100 100 100 100 100 100 100 99 100 100 100 99 100 100
100 100 100 100 100 100 95 11 5 5 27 100 94 79 96 98 89 75 68 47 79 100 100 69 100 100 100 100 100 100 100 100 100 100 100 100 100 100 100 100 100 100 100 100 100 100 100
100 100 100 100 100 100 98 75 53 2 19 100 65 70 25 92 100 100 76 22 36 99 100 100 100 100 100 100 100 100 96 100 100 100 100 100 100 100 100 100 100 100 100 100 100 100 100
100 100 100 100 100 100 100 100 97 12 4 82 66 88 100 34 100 75 94 42 31 100 100 100 100 94 82 79 74 76 99 91 100 100 100 100 100 100 100 100 100 100 100 100 100 100 100
100 100 100 100 100 100 100 100 100 100 94 54 98 98 93 100 100 100 100 97 99 78 76 52 98 100 80 68 98 100 97 100 98 100 100 100 100 100 100 100 100 100 92 100 100 100 100
55 100 100 100 100 100 100 100 100 100 100 78 100 100 100 100 82 100 100 100 100 100 78 100 100 100 100 100 99 98 100 100 100 100 100 100 100 99 100 100 100 100 100 100 100 100 85
100 100 100 98 95 100 100 100 100 100 100 93 100 100 100 100 100 100 100 100 100 95 93 88 100 100 100 100 89 96 100 97 88 100 100 100 100 100 100 100 100 100 100 100 100 100 100
92 100 80 16 47 91 100 100 100 100 100 100 100 100 100 87 100 70 77 12 98 98 100 100 100 100 100 100 100 100 88 94 100 95 100 100 100 100 100 100 100 100 98 85 100 100 100
83 100 100 100 100 100 96 96 100 100 100 100 100 100 100 100 100 51 16 29 94 100 100 100 100 100 79 99 78 100 94 51 95 100 83 96 97 100 100 100 100 100 100 99 96 45 45